Regional Weather Roundup
Issued by NWS

Home | Current Version | Previous Version | Text Only | Print | Product List | Glossary On
Versions: 1 2 3 4 5 6 7 8 9 10 11 12 13 14 15 16 17 18 19 20 21 22 23 24 25 26 27 28 29 30 31 32 33 34 35 36 37 38 39 40 41 42 43 44 45 46 47 48 49 50
000
ASUS43 KBIS 251802
RWRND

NORTH DAKOTA REGIONAL WEATHER ROUNDUP
NATIONAL WEATHER SERVICE BISMARCK ND
100 PM CDT MON SEP 25 2017

NOTE: "FAIR" INDICATES FEW OR NO CLOUDS BELOW 12,000 FEET WITH NO
SIGNIFICANT WEATHER AND/OR OBSTRUCTIONS TO VISIBILITY.


NDZ001>003-009>011-017-251900-
NORTHWEST NORTH DAKOTA

CITY           SKY/WX    TMP DP  RH WIND       PRES   REMARKS
WILLISTON      CLOUDY    51  43  74 CALM      30.15F
6HR MIN TEMP:  45; 6HR MAX TEMP:  51; 6HR PCP: TRACE;

MINOT          CLOUDY    52  43  71 CALM      30.15F
MINOT AFB      CLOUDY    51  44  76 CALM      30.14F
$$

NDZ018>021-031>035-040>046-251900-
SOUTHWEST NORTH DAKOTA

CITY           SKY/WX    TMP DP  RH WIND       PRES   REMARKS
BISMARCK       CLOUDY    53  44  71 CALM      30.15F
6HR MIN TEMP:  48; 6HR MAX TEMP:  53;

DICKINSON      CLOUDY    46  42  86 W6        30.14S
GARRISON         N/A     51  43  74 CALM      30.15F
6HR MIN TEMP:  45; 6HR MAX TEMP:  51;

HETTINGER ARPT LGT RAIN  44  40  85 S5        30.16F
$$

NDZ004>008-012>016-024-026-027-054-251900-
NORTHEAST NORTH DAKOTA

CITY           SKY/WX    TMP DP  RH WIND       PRES   REMARKS
GRAND FORKS    CLOUDY    51  47  86 N12       30.13S
GRND FRKS AFB  CLOUDY    51  44  78 N9        30.14S
DEVILS LAKE    CLOUDY    49  41  74 NE10      30.16S
$$

NDZ022-023-025-028>030-036>039-047>053-251900-
SOUTHEAST NORTH DAKOTA

CITY           SKY/WX    TMP DP  RH WIND       PRES   REMARKS
FARGO          CLOUDY    52  47  83 N13       30.10S
6HR MIN TEMP:  49; 6HR MAX TEMP:  53; 6HR PCP: TRACE;

JAMESTOWN      CLOUDY    50  42  74 N13       30.13S
$$





USA.gov is the U.S. government's official web portal to all federal, state and local government web resources and services.